Location: El Diablo
(32.4667°N, 116.4500°W)
Time: 14:37:38
(UTC+00:00)

Daily predictions for brighter satellites

Satellite Brightness Start Highest point End
(mag) Time Altitude Azimuth Time Altitude Azimuth Time Altitude Azimuth
Cosmos 1867 3.6 12:03:58 29° SW 12:06:43 61° WNW 12:12:08 10° NNE
Cosmos 1666 3.9 12:11:23 10° NNW 12:12:49 20° NW 12:12:49 20° NW
Cosmos 2322 Rocket 2.2 12:09:36 10° NNW 12:15:09 58° WSW 12:20:39 10° S
ARGOS 3.6 12:16:40 10° NNE 12:21:59 66° ESE 12:27:18 10° S
NOSS 3-2 (C) 3.0 12:17:52 11° SSW 12:22:42 82° ESE 12:28:17 10° NNE
Cosmos 1741 Rocket 4.4 12:17:58 10° S 12:23:10 66° ESE 12:28:21 10° NNE
Cosmos 2219 Rocket 2.7 12:19:15 10° NNW 12:24:49 63° ENE 12:30:20 10° SSE
Cosmos 1862 4.3 12:22:59 10° NW 12:25:57 22° W 12:26:08 22° W
Chandra Rocket (1) 2.8 12:23:50 23° WSW 12:26:04 57° S 12:35:45 10° E
Cosmos 1758 Rocket 4.4 12:22:26 10° NNW 12:26:10 28° W 12:29:51 10° SSW
Cosmos 468 Rocket 3.9 12:22:04 10° NNW 12:27:17 78° WSW 12:32:32 10° S
Cosmos 2333 Rocket 2.2 12:22:44 10° NNW 12:28:20 60° WSW 12:33:53 10° S
JB-3 4.4 12:25:50 10° SSE 12:29:36 75° ENE 12:33:29 10° N
Cosmos 2058 Rocket 3.4 12:27:00 10° S 12:31:20 68° E 12:35:45 10° NNE
Cosmos 1602 3.4 12:28:07 10° NNW 12:31:35 58° W 12:35:01 10° S
Cosmos 540 Rocket 3.6 12:30:46 10° NNW 12:35:42 51° WSW 12:40:39 10° S
SL-16 R/B 3.3 12:31:57 10° NW 12:36:02 21° W 12:40:07 10° SSW
Cosmos 1818 3.7 12:32:41 10° NW 12:37:58 51° WSW 12:43:10 10° S
Cosmos 1484 Rocket 2.9 12:36:16 10° N 12:39:52 50° WNW 12:43:30 10° SSW
Thor Agena Rocket 4.2 12:35:36 10° N 12:40:15 36° WNW 12:44:57 10° SW
H-2A R/B 3.5 12:38:51 10° NNE 12:41:39 40° E 12:44:26 10° S
Cosmos 1726 Rocket 4.0 12:38:50 10° SSW 12:42:50 38° W 12:46:53 10° N
Cosmos 1763 Rocket 4.2 12:41:08 10° NW 12:45:31 29° W 12:49:57 10° SSW
Cosmos 1850 Rocket 4.0 12:42:09 10° SSW 12:47:19 66° WNW 12:52:35 10° N
Cosmos-2242 4.3 12:44:13 10° SSE 12:48:11 43° E 12:52:11 10° NNE
CZ-2C R/B 4.2 12:47:38 10° NW 12:49:06 11° WNW 12:50:34 10° W
Cosmos 1515 3.5 12:47:28 10° S 12:50:48 79° E 12:54:11 10° N
NOAA 12 4.4 12:46:38 10° NNE 12:51:51 71° ESE 12:57:04 10° S
Cosmos 1939 Rocket 3.5 12:48:20 10° N 12:51:56 33° WNW 12:55:30 10° SW
Cosmos 1378 2.7 12:51:45 10° S 12:54:50 84° E 12:57:56 10° N
Cosmos 2151 3.0 12:52:12 10° NNW 12:56:13 52° W 13:00:14 10° S
SME Rocket 3.8 12:57:24 10° N 13:00:41 29° WNW 13:04:17 10° SW
Cosmos 1238 Rocket 3.8 12:56:04 10° S 13:01:23 84° E 13:07:06 10° N
COSMO-SKYMED 1 3.0 12:57:28 10° SSE 13:01:46 69° ENE 13:06:05 10° N
Atlas Centaur 2 2.7 12:59:23 10° WSW 13:05:18 70° S 13:12:42 10° E
ATLAS 5 CENTAUR R/B 4.2 13:11:21 10° W 13:31:17 32° SW 13:37:27 10° SSE
